| time (UTC) | temp F | wind direction | speed knots | gust knots | rain 1hr in | rain 24hr in | rain mn in | humidity % | barometer mb |
| 20260510164327 | 78 | 294 | 1.7 | 7.8 | 0.00 | 0.00 | 0.00 | 54 | 1012.3 |
| 20260510163828 | 78 | 5 | 2.6 | 5.2 | 0.00 | 0.00 | 0.00 | 59 | 1012.4 |
| 20260510163328 | 78 | 303 | 2.6 | 6.1 | 0.00 | 0.00 | 0.00 | 56 | 1012.3 |
| 20260510162821 | 78 | 329 | 2.6 | 6.1 | 0.00 | 0.00 | 0.00 | 58 | 1012.3 |
| 20260510162321 | 77 | 338 | 1.7 | 6.1 | 0.00 | 0.00 | 0.00 | 60 | 1012.4 |
| 20260510161819 | 77 | 59 | 1.7 | 3.5 | 0.00 | 0.00 | 0.00 | 61 | 1012.4 |
| 20260510161319 | 76 | 256 | 1.7 | 3.5 | 0.00 | 0.00 | 0.00 | 60 | 1012.4 |
| 20260510160818 | 76 | 191 | 1.7 | 7.8 | 0.00 | 0.00 | 0.00 | 61 | 1012.4 |
| 20260510160318 | 75 | 256 | 1.7 | 7.8 | 0.00 | 0.00 | 0.00 | 65 | 1012.4 |
| 20260510155816 | 74 | 187 | 1.7 | 4.3 | 0.00 | 0.00 | 0.00 | 67 | 1012.5 |
| 20260510155812 | 74 | 184 | 1.7 | 5.2 | 0.00 | 0.00 | 0.00 | 66 | 1012.4 |
| 20260510154813 | 73 | 317 | 1.7 | 3.5 | 0.00 | 0.00 | 0.00 | 69 | 1012.5 |
| 20260510154312 | 73 | 189 | 1.7 | 3.5 | 0.00 | 0.00 | 0.00 | 69 | 1012.7 |
| 20260510153811 | 72 | 211 | 1.7 | 4.3 | 0.00 | 0.00 | 0.00 | 68 | 1012.8 |
| 20260510153309 | 72 | 209 | 1.7 | 4.3 | 0.00 | 0.00 | 0.00 | 70 | 1012.9 |
| 20260510152808 | 71 | 223 | 1.7 | 3.5 | 0.00 | 0.00 | 0.00 | 73 | 1012.9 |
| 20260510152307 | 71 | 243 | 1.7 | 5.2 | 0.00 | 0.00 | 0.00 | 73 | 1012.8 |
| 20260510152037 | 70 | 159 | 1.7 | 5.2 | 0.00 | 0.00 | 0.00 | 74 | 1012.9 |
| 20260510151306 | 69 | 163 | 0.9 | 3.5 | 0.00 | 0.00 | 0.00 | 75 | 1012.8 |
| 20260510150805 | 69 | 146 | 0.9 | 3.5 | 0.00 | 0.00 | 0.00 | 74 | 1013.0 |
| 20260510150304 | 68 | 240 | 1.7 | 4.3 | 0.00 | 0.00 | 0.00 | 75 | 1013.1 |
| 20260510150034 | 68 | 189 | 1.7 | 4.3 | 0.00 | 0.00 | 0.00 | 77 | 1013.0 |
| 20260510145259 | 67 | 173 | 0.9 | 3.5 | 0.00 | 0.00 | 0.00 | 79 | 1013.0 |
| 20260510145029 | 66 | 215 | 0.9 | 4.3 | 0.00 | 0.00 | 0.00 | 78 | 1013.0 |
| 20260510144258 | 66 | 210 | 0.9 | 4.3 | 0.00 | 0.00 | 0.00 | 78 | 1013.0 |
| 20260510143758 | 65 | 198 | 1.7 | 4.3 | 0.00 | 0.00 | 0.00 | 79 | 1013.0 |
| 20260510143258 | 64 | 169 | 1.7 | 4.3 | 0.00 | 0.00 | 0.00 | 80 | 1013.0 |
| 20260510142753 | 64 | 167 | 1.7 | 4.3 | 0.00 | 0.00 | 0.00 | 82 | 1013.0 |
| 20260510142249 | 63 | 181 | 1.7 | 4.3 | 0.00 | 0.00 | 0.00 | 84 | 1013.1 |
| 20260510141748 | 63 | 173 | 0.9 | 4.3 | 0.00 | 0.00 | 0.00 | 82 | 1013.1 |
| 20260510141246 | 62 | 192 | 0.9 | 4.3 | 0.00 | 0.00 | 0.00 | 85 | 1013.2 |
| 20260510140746 | 61 | 195 | 1.7 | 4.3 | 0.00 | 0.00 | 0.00 | 86 | 1013.1 |
| 20260510140239 | 60 | 276 | 0.9 | 2.6 | 0.00 | 0.00 | 0.00 | 89 | 1012.9 |
| 20260510135738 | 59 | 246 | 0.9 | 3.5 | 0.00 | 0.00 | 0.00 | 89 | 1012.9 |
| 20260510135505 | 58 | 188 | 1.7 | 3.5 | 0.00 | 0.00 | 0.00 | 91 | 1012.9 |
| 20260510134736 | 58 | 192 | 1.7 | 3.5 | 0.00 | 0.00 | 0.00 | 90 | 1013.0 |
| 20260510134236 | 57 | 193 | 0.9 | 2.6 | 0.00 | 0.00 | 0.00 | 91 | 1013.0 |
| 20260510133735 | 57 | 196 | 0.9 | 3.5 | 0.00 | 0.00 | 0.00 | 92 | 1013.0 |
| 20260510133231 | 56 | 196 | 0.9 | 3.5 | 0.00 | 0.00 | 0.00 | 93 | 1012.9 |
| 20260510132732 | 56 | 123 | 0.9 | 2.6 | 0.00 | 0.00 | 0.00 | 94 | 1013.0 |
| 20260510132232 | 55 | 334 | 0.9 | 2.6 | 0.00 | 0.00 | 0.00 | 94 | 1012.9 |
| 20260510131733 | 55 | 279 | 0.9 | 2.6 | 0.00 | 0.00 | 0.00 | 94 | 1013.0 |
| 20260510131230 | 55 | 279 | 0.0 | 2.6 | 0.00 | 0.00 | 0.00 | 95 | 1013.2 |
| 20260510130730 | 55 | 275 | 0.0 | 2.6 | 0.00 | 0.00 | 0.00 | 95 | 1013.2 |
| 20260510130227 | 55 | 275 | 0.9 | 3.5 | 0.00 | 0.00 | 0.00 | 95 | 1013.2 |
| 20260510125726 | 54 | 276 | 0.9 | 3.5 | 0.00 | 0.00 | 0.00 | 96 | 1013.2 |
| 20260510125224 | 54 | 202 | 0.9 | 2.6 | 0.00 | 0.00 | 0.00 | 95 | 1013.2 |
| 20260510124954 | 54 | 202 | 0.9 | 3.5 | 0.00 | 0.00 | 0.00 | 96 | 1013.2 |
| 20260510124221 | 54 | 202 | 1.7 | 3.5 | 0.00 | 0.00 | 0.00 | 96 | 1013.0 |
| 20260510123720 | 54 | 201 | 1.7 | 3.5 | 0.00 | 0.00 | 0.00 | 96 | 1013.0 |
| 20260510123216 | 54 | 215 | 1.7 | 4.3 | 0.00 | 0.00 | 0.00 | 97 | 1012.8 |
| 20260510122718 | 53 | 173 | 1.7 | 4.3 | 0.00 | 0.00 | 0.00 | 98 | 1012.7 |
| 20260510122217 | 53 | 206 | 0.9 | 4.3 | 0.00 | 0.00 | 0.00 | 98 | 1012.4 |
| 20260510121718 | 53 | 206 | 0.0 | 2.6 | 0.00 | 0.00 | 0.00 | 98 | 1012.5 |
| 20260510121216 | 53 | 207 | 0.9 | 4.3 | 0.00 | 0.00 | 0.00 | 98 | 1012.5 |
| 20260510120714 | 53 | 201 | 0.9 | 4.3 | 0.00 | 0.00 | 0.00 | 99 | 1012.3 |
| 20260510120211 | 52 | 196 | 0.9 | 2.6 | 0.00 | 0.00 | 0.00 | 99 | 1012.3 |
| 20260510115712 | 52 | 275 | 0.0 | 0.0 | 0.00 | 0.00 | 0.00 | 99 | 1012.2 |
| 20260510115212 | 52 | 295 | 0.0 | 0.0 | 0.00 | 0.00 | 0.00 | 99 | 1012.3 |
| 20260510114713 | 52 | 295 | 0.0 | 0.0 | 0.00 | 0.00 | 0.00 | 99 | 1012.2 |
| 20260510114205 | 52 | 355 | 0.0 | 0.0 | 0.00 | 0.00 | 0.00 | 99 | 1012.0 |
| 20260510113934 | 51 | 348 | 0.0 | 0.0 | 0.00 | 0.00 | 0.00 | 100 | 1012.1 |
| 20260510113202 | 51 | 350 | 0.0 | 0.0 | 0.00 | 0.00 | 0.00 | 100 | 1012.2 |
| 20260510112700 | 51 | 350 | 0.0 | 0.0 | 0.00 | 0.00 | 0.00 | 100 | 1012.2 |
| 20260510112200 | 51 | 350 | 0.0 | 0.0 | 0.00 | 0.00 | 0.00 | 100 | 1012.2 |
| 20260510111927 | 51 | 350 | 0.0 | 0.0 | 0.00 | 0.00 | 0.00 | 100 | 1012.2 |
| 20260510111157 | 51 | 350 | 0.0 | 0.0 | 0.00 | 0.00 | 0.00 | 100 | 1012.2 |
| 20260510110658 | 51 | 350 | 0.0 | 0.0 | 0.00 | 0.00 | 0.00 | 100 | 1012.1 |
| 20260510110158 | 51 | 350 | 0.0 | 0.0 | 0.00 | 0.00 | 0.00 | 100 | 1012.2 |
| 20260510105654 | 51 | 350 | 0.0 | 0.0 | 0.00 | 0.00 | 0.00 | 100 | 1012.1 |
| 20260510105153 | 50 | 350 | 0.0 | 0.0 | 0.00 | 0.00 | 0.00 | 100 | 1012.2 |
| 20260510104655 | 50 | 350 | 0.0 | 0.0 | 0.00 | 0.00 | 0.00 | 100 | 1012.0 |
| 20260510104156 | 50 | 350 | 0.0 | 1.7 | 0.00 | 0.00 | 0.00 | 100 | 1011.7 |
| 20260510103654 | 50 | 350 | 0.0 | 1.7 | 0.00 | 0.00 | 0.00 | 100 | 1011.8 |
| 20260510103149 | 50 | 350 | 0.0 | 1.7 | 0.00 | 0.00 | 0.00 | 100 | 1011.8 |
| 20260510102651 | 50 | 350 | 0.0 | 0.0 | 0.00 | 0.00 | 0.00 | 100 | 1011.6 |
| 20260510102150 | 50 | 350 | 0.0 | 0.9 | 0.00 | 0.00 | 0.00 | 100 | 1011.6 |
| 20260510101650 | 50 | 350 | 0.0 | 0.9 | 0.00 | 0.00 | 0.00 | 100 | 1011.6 |
| 20260510101150 | 50 | 350 | 0.0 | 0.9 | 0.00 | 0.00 | 0.00 | 100 | 1011.7 |
| 20260510100650 | 50 | 350 | 0.0 | 2.6 | 0.00 | 0.00 | 0.00 | 100 | 1011.6 |
| 20260510100145 | 50 | 350 | 0.0 | 2.6 | 0.00 | 0.00 | 0.00 | 100 | 1011.6 |
| 20260510095646 | 49 | 351 | 0.0 | 0.9 | 0.00 | 0.00 | 0.00 | 100 | 1011.7 |
| 20260510095144 | 49 | 351 | 0.0 | 0.9 | 0.00 | 0.00 | 0.00 | 99 | 1011.7 |
| 20260510094644 | 49 | 351 | 0.0 | 0.9 | 0.00 | 0.00 | 0.00 | 99 | 1011.5 |
| 20260510094143 | 49 | 351 | 0.0 | 1.7 | 0.00 | 0.00 | 0.00 | 99 | 1011.5 |
| 20260510093641 | 49 | 350 | 0.0 | 1.7 | 0.00 | 0.00 | 0.00 | 99 | 1011.5 |
| 20260510093136 | 49 | 350 | 0.0 | 1.7 | 0.00 | 0.00 | 0.00 | 99 | 1011.4 |
| 20260510092634 | 49 | 355 | 0.9 | 2.6 | 0.00 | 0.00 | 0.00 | 99 | 1011.5 |
| 20260510092401 | 49 | 355 | 0.9 | 2.6 | 0.00 | 0.00 | 0.00 | 99 | 1011.6 |
| 20260510091629 | 49 | 355 | 0.0 | 0.9 | 0.00 | 0.00 | 0.00 | 99 | 1011.7 |
| 20260510091129 | 49 | 355 | 0.9 | 3.5 | 0.00 | 0.00 | 0.00 | 99 | 1011.7 |
| 20260510090626 | 49 | 355 | 0.9 | 3.5 | 0.00 | 0.00 | 0.00 | 99 | 1011.7 |
| 20260510090126 | 49 | 83 | 0.9 | 2.6 | 0.00 | 0.00 | 0.00 | 99 | 1011.5 |
| 20260510085622 | 49 | 55 | 0.9 | 3.5 | 0.00 | 0.00 | 0.00 | 99 | 1011.7 |
| 20260510085121 | 49 | 56 | 0.9 | 3.5 | 0.00 | 0.00 | 0.00 | 99 | 1011.6 |
| 20260510084852 | 49 | 355 | 0.9 | 4.3 | 0.00 | 0.00 | 0.00 | 99 | 1011.8 |
| 20260510084122 | 49 | 48 | 0.9 | 4.3 | 0.00 | 0.00 | 0.00 | 99 | 1011.5 |
| 20260510083614 | 49 | 355 | 1.7 | 6.1 | 0.00 | 0.00 | 0.00 | 99 | 1011.7 |
| 20260510083113 | 49 | 355 | 2.6 | 6.1 | 0.00 | 0.00 | 0.00 | 99 | 1011.8 |
| 20260510082842 | 50 | 121 | 1.7 | 6.1 | 0.00 | 0.00 | 0.00 | 100 | 1011.4 |
| 20260510082340 | 49 | 0 | 2.6 | 7.0 | 0.00 | 0.00 | 0.00 | 100 | 1011.8 |
| 20260510081609 | 50 | 355 | 2.6 | 7.0 | 0.00 | 0.00 | 0.00 | 99 | 1011.6 |
| 20260510081336 | 50 | 355 | 0.9 | 4.3 | 0.00 | 0.00 | 0.00 | 100 | 1011.2 |
| 20260510080606 | 49 | 44 | 0.9 | 1.7 | 0.00 | 0.00 | 0.00 | 100 | 1010.9 |
| 20260510080334 | 49 | 66 | 0.0 | 2.6 | 0.00 | 0.00 | 0.00 | 99 | 1010.9 |
| 20260510075600 | 49 | 66 | 0.9 | 2.6 | 0.00 | 0.00 | 0.00 | 99 | 1010.9 |
| 20260510075059 | 49 | 65 | 0.0 | 2.6 | 0.00 | 0.00 | 0.00 | 99 | 1010.9 |
| 20260510074558 | 49 | 65 | 0.0 | 0.0 | 0.00 | 0.00 | 0.00 | 99 | 1010.9 |
| 20260510074056 | 50 | 65 | 0.0 | 2.6 | 0.00 | 0.00 | 0.00 | 99 | 1010.9 |
| 20260510073558 | 49 | 65 | 0.0 | 2.6 | 0.00 | 0.00 | 0.00 | 99 | 1010.8 |
| 20260510073057 | 49 | 67 | 0.0 | 0.0 | 0.00 | 0.00 | 0.00 | 99 | 1010.8 |
| 20260510072557 | 49 | 67 | 0.0 | 0.0 | 0.00 | 0.00 | 0.00 | 99 | 1010.8 |
| 20260510072056 | 50 | 67 | 0.0 | 0.0 | 0.00 | 0.00 | 0.00 | 100 | 1010.9 |
| 20260510071555 | 49 | 67 | 0.0 | 1.7 | 0.00 | 0.00 | 0.00 | 99 | 1010.8 |
| 20260510071055 | 49 | 67 | 0.9 | 2.6 | 0.00 | 0.00 | 0.00 | 99 | 1010.8 |
| 20260510070549 | 50 | 67 | 0.9 | 2.6 | 0.00 | 0.00 | 0.00 | 99 | 1010.8 |
| 20260510070049 | 50 | 68 | 1.7 | 5.2 | 0.00 | 0.00 | 0.00 | 99 | 1010.8 |
| 20260510065549 | 49 | 24 | 1.7 | 5.2 | 0.00 | 0.00 | 0.00 | 99 | 1010.9 |
| 20260510065049 | 49 | 32 | 1.7 | 3.5 | 0.00 | 0.00 | 0.00 | 99 | 1010.9 |
| 20260510064549 | 49 | 52 | 1.7 | 6.1 | 0.00 | 0.00 | 0.00 | 99 | 1010.8 |
| 20260510064048 | 49 | 65 | 2.6 | 6.1 | 0.00 | 0.00 | 0.00 | 99 | 1010.8 |
| 20260510063546 | 50 | 56 | 1.7 | 4.3 | 0.00 | 0.00 | 0.00 | 99 | 1010.7 |
| 20260510063046 | 50 | 9 | 0.9 | 3.5 | 0.00 | 0.00 | 0.00 | 99 | 1010.6 |
| 20260510062817 | 50 | 63 | 0.9 | 3.5 | 0.00 | 0.00 | 0.00 | 99 | 1010.5 |
| 20260510062045 | 50 | 63 | 0.9 | 3.5 | 0.00 | 0.00 | 0.00 | 99 | 1010.4 |
| 20260510061545 | 50 | 108 | 0.0 | 1.7 | 0.00 | 0.00 | 0.00 | 100 | 1010.5 |
| 20260510061046 | 50 | 131 | 0.0 | 0.0 | 0.00 | 0.00 | 0.00 | 100 | 1010.5 |
| 20260510060544 | 50 | 131 | 0.0 | 0.0 | 0.00 | 0.00 | 0.00 | 100 | 1010.5 |
| 20260510060310 | 50 | 130 | 0.0 | 0.0 | 0.00 | 0.00 | 0.00 | 100 | 1010.6 |
| 20260510055541 | 50 | 131 | 0.0 | 0.0 | 0.00 | 0.00 | 0.00 | 100 | 1010.6 |
| 20260510055042 | 49 | 130 | 0.0 | 0.0 | 0.00 | 0.00 | 0.00 | 100 | 1010.6 |
| 20260510054541 | 49 | 130 | 0.0 | 0.0 | 0.00 | 0.00 | 0.00 | 100 | 1010.6 |
| 20260510054041 | 49 | 130 | 0.0 | 0.0 | 0.00 | 0.00 | 0.00 | 100 | 1010.7 |
| 20260510053539 | 49 | 130 | 0.0 | 0.0 | 0.00 | 0.00 | 0.00 | 99 | 1010.7 |
| 20260510053307 | 49 | 131 | 0.0 | 0.0 | 0.00 | 0.00 | 0.00 | 99 | 1010.7 |
| 20260510052535 | 49 | 130 | 0.0 | 0.0 | 0.00 | 0.00 | 0.00 | 99 | 1010.8 |
| 20260510052036 | 49 | 130 | 0.0 | 0.0 | 0.00 | 0.00 | 0.00 | 99 | 1010.8 |
| 20260510051535 | 49 | 131 | 0.0 | 0.0 | 0.00 | 0.00 | 0.00 | 99 | 1010.8 |
| 20260510051304 | 49 | 130 | 0.0 | 0.0 | 0.00 | 0.00 | 0.00 | 99 | 1010.9 |
| 20260510050533 | 49 | 130 | 0.0 | 0.0 | 0.00 | 0.00 | 0.00 | 99 | 1010.9 |
| 20260510050027 | 49 | 130 | 0.0 | 0.0 | 0.00 | 0.00 | 0.00 | 99 | 1010.9 |
| 20260510045524 | 49 | 130 | 0.0 | 0.0 | 0.00 | 0.00 | 0.00 | 99 | 1010.9 |
| 20260510045255 | 49 | 131 | 0.0 | 0.0 | 0.00 | 0.00 | 0.00 | 99 | 1010.9 |
| 20260510044524 | 49 | 130 | 0.0 | 0.0 | 0.00 | 0.00 | 0.00 | 99 | 1011.0 |
| 20260510044023 | 49 | 131 | 0.0 | 0.0 | 0.00 | 0.00 | 0.00 | 99 | 1011.0 |
| 20260510043520 | 49 | 131 | 0.0 | 0.0 | 0.00 | 0.00 | 0.00 | 99 | 1011.0 |
| 20260510043017 | 49 | 130 | 0.0 | 0.0 | 0.00 | 0.00 | 0.00 | 99 | 1011.1 |
| 20260510042515 | 49 | 131 | 0.0 | 0.0 | 0.00 | 0.00 | 0.00 | 99 | 1011.0 |
| 20260510042013 | 49 | 131 | 0.0 | 0.0 | 0.00 | 0.00 | 0.00 | 99 | 1011.1 |
| 20260510041510 | 49 | 131 | 0.0 | 0.0 | 0.00 | 0.00 | 0.00 | 99 | 1011.1 |
| 20260510041011 | 49 | 130 | 0.0 | 0.0 | 0.00 | 0.00 | 0.00 | 99 | 1011.1 |
| 20260510040500 | 49 | 130 | 0.0 | 0.0 | 0.00 | 0.00 | 0.00 | 99 | 1011.1 |
| 20260510040001 | 49 | 131 | 0.0 | 0.0 | 0.00 | 0.00 | 0.00 | 99 | 1011.0 |
| 20260510035501 | 49 | 130 | 0.0 | 0.0 | 0.00 | 0.00 | 0.00 | 98 | 1011.0 |
| 20260510034958 | 49 | 130 | 0.0 | 0.0 | 0.00 | 0.00 | 0.00 | 98 | 1011.0 |
| 20260510034457 | 49 | 131 | 0.0 | 0.0 | 0.00 | 0.00 | 0.00 | 98 | 1011.0 |
| 20260510033959 | 49 | 131 | 0.0 | 0.0 | 0.00 | 0.00 | 0.00 | 98 | 1010.9 |
| 20260510033458 | 49 | 131 | 0.0 | 0.0 | 0.00 | 0.00 | 0.00 | 98 | 1010.9 |
| 20260510032959 | 49 | 130 | 0.0 | 0.0 | 0.00 | 0.00 | 0.00 | 98 | 1010.8 |
| 20260510032458 | 49 | 130 | 0.0 | 0.0 | 0.00 | 0.00 | 0.00 | 98 | 1010.7 |
| 20260510031954 | 49 | 131 | 0.0 | 0.0 | 0.00 | 0.00 | 0.00 | 98 | 1010.7 |
| 20260510031453 | 49 | 130 | 0.0 | 0.0 | 0.00 | 0.00 | 0.00 | 98 | 1010.7 |
| 20260510030954 | 49 | 130 | 0.0 | 0.0 | 0.00 | 0.00 | 0.00 | 98 | 1010.8 |
| 20260510030454 | 49 | 131 | 0.0 | 0.0 | 0.00 | 0.00 | 0.00 | 97 | 1010.8 |
| 20260510025951 | 49 | 131 | 0.0 | 0.0 | 0.00 | 0.00 | 0.00 | 97 | 1010.7 |
| 20260510025452 | 49 | 130 | 0.0 | 0.0 | 0.00 | 0.00 | 0.00 | 97 | 1010.6 |
| 20260510024950 | 49 | 130 | 0.0 | 0.0 | 0.00 | 0.00 | 0.00 | 97 | 1010.6 |
| 20260510024447 | 49 | 131 | 0.0 | 0.0 | 0.00 | 0.00 | 0.00 | 96 | 1010.6 |
| 20260510023948 | 50 | 130 | 0.0 | 0.0 | 0.00 | 0.00 | 0.00 | 96 | 1010.5 |
| 20260510023448 | 50 | 131 | 0.0 | 0.0 | 0.00 | 0.00 | 0.00 | 96 | 1010.6 |
| 20260510022946 | 50 | 130 | 0.0 | 0.0 | 0.00 | 0.00 | 0.00 | 96 | 1010.5 |
| 20260510022445 | 50 | 131 | 0.0 | 0.0 | 0.00 | 0.00 | 0.00 | 96 | 1010.5 |
| 20260510021940 | 50 | 131 | 0.0 | 0.0 | 0.00 | 0.00 | 0.00 | 96 | 1010.6 |
| 20260510021438 | 50 | 130 | 0.0 | 0.0 | 0.00 | 0.00 | 0.00 | 96 | 1010.6 |
| 20260510020942 | 51 | 130 | 0.0 | 0.0 | 0.00 | 0.00 | 0.00 | 96 | 1010.5 |
| 20260510020937 | 50 | 130 | 0.0 | 0.0 | 0.00 | 0.00 | 0.00 | 96 | 1010.6 |
| 20260510020207 | 51 | 131 | 0.0 | 0.0 | 0.00 | 0.00 | 0.00 | 96 | 1010.6 |
| 20260510015436 | 51 | 130 | 0.0 | 0.0 | 0.00 | 0.00 | 0.00 | 96 | 1010.6 |
| 20260510014930 | 51 | 131 | 0.0 | 0.0 | 0.00 | 0.00 | 0.00 | 96 | 1010.6 |
| 20260510014431 | 51 | 130 | 0.0 | 0.0 | 0.00 | 0.00 | 0.00 | 95 | 1010.4 |
| 20260510013934 | 51 | 130 | 0.0 | 0.0 | 0.00 | 0.00 | 0.00 | 95 | 1010.5 |
| 20260510013702 | 51 | 130 | 0.0 | 0.0 | 0.00 | 0.00 | 0.00 | 95 | 1010.5 |
| 20260510012931 | 52 | 130 | 0.0 | 0.0 | 0.00 | 0.00 | 0.00 | 95 | 1010.4 |
| 20260510012433 | 52 | 130 | 0.0 | 0.0 | 0.00 | 0.00 | 0.00 | 95 | 1010.4 |
| 20260510012428 | 52 | 130 | 0.0 | 0.0 | 0.00 | 0.00 | 0.00 | 95 | 1010.4 |
| 20260510012040 | 52 | 130 | 0.0 | 0.0 | 0.00 | 0.00 | 0.00 | 95 | 1010.3 |
| 20260510010920 | 52 | 131 | 0.0 | 0.0 | 0.00 | 0.00 | 0.00 | 95 | 1010.2 |
| 20260510010418 | 53 | 131 | 0.0 | 0.0 | 0.00 | 0.00 | 0.00 | 95 | 1010.2 |
| 20260510005916 | 53 | 130 | 0.0 | 0.0 | 0.00 | 0.00 | 0.00 | 94 | 1010.2 |
| 20260510005642 | 53 | 130 | 0.0 | 0.0 | 0.00 | 0.00 | 0.00 | 94 | 1010.1 |
| 20260510004910 | 53 | 130 | 0.0 | 0.0 | 0.00 | 0.00 | 0.00 | 94 | 1010.1 |
| 20260510004411 | 53 | 130 | 0.0 | 0.0 | 0.00 | 0.00 | 0.00 | 94 | 1010.0 |
| 20260510003910 | 54 | 130 | 0.0 | 0.0 | 0.00 | 0.00 | 0.00 | 94 | 1010.0 |
| 20260510003408 | 54 | 131 | 0.0 | 0.0 | 0.00 | 0.00 | 0.00 | 94 | 1009.8 |
| 20260510003139 | 54 | 130 | 0.0 | 0.0 | 0.00 | 0.00 | 0.00 | 93 | 1009.7 |
| 20260510002403 | 54 | 130 | 0.0 | 0.0 | 0.00 | 0.00 | 0.00 | 93 | 1009.8 |
| 20260510002133 | 55 | 130 | 0.0 | 0.0 | 0.00 | 0.00 | 0.00 | 93 | 1009.8 |
| 20260510001402 | 55 | 130 | 0.0 | 0.0 | 0.00 | 0.00 | 0.00 | 93 | 1009.8 |
| 20260510000905 | 55 | 130 | 0.0 | 0.0 | 0.00 | 0.00 | 0.00 | 93 | 1009.8 |
| 20260510000403 | 55 | 130 | 0.0 | 0.0 | 0.00 | 0.00 | 0.00 | 93 | 1009.8 |
| 20260509235903 | 56 | 130 | 0.0 | 0.0 | 0.00 | 0.00 | 0.00 | 93 | 1009.8 |
| 20260509235359 | 56 | 130 | 0.0 | 0.0 | 0.00 | 0.00 | 0.00 | 93 | 1009.8 |
| 20260509234859 | 56 | 130 | 0.0 | 1.7 | 0.00 | 0.00 | 0.00 | 93 | 1009.8 |
| 20260509234629 | 56 | 130 | 0.0 | 1.7 | 0.00 | 0.00 | 0.00 | 93 | 1009.9 |
| 20260509233900 | 56 | 130 | 0.0 | 3.5 | 0.00 | 0.00 | 0.00 | 93 | 1009.8 |
| 20260509233358 | 56 | 130 | 0.0 | 3.5 | 0.00 | 0.00 | 0.00 | 94 | 1009.7 |
| 20260509232901 | 56 | 131 | 0.0 | 0.0 | 0.00 | 0.00 | 0.00 | 93 | 1009.7 |
| 20260509232359 | 56 | 131 | 0.0 | 0.0 | 0.00 | 0.00 | 0.00 | 94 | 1009.7 |
| 20260509232129 | 56 | 131 | 0.0 | 0.0 | 0.00 | 0.00 | 0.00 | 91 | 1009.8 |
| 20260509231624 | 56 | 131 | 0.0 | 0.0 | 0.00 | 0.00 | 0.00 | 91 | 1009.8 |
| 20260509230853 | 56 | 131 | 0.0 | 0.0 | 0.00 | 0.00 | 0.00 | 90 | 1009.8 |
| 20260509230355 | 56 | 131 | 0.0 | 0.0 | 0.00 | 0.00 | 0.00 | 90 | 1009.7 |
| 20260509225851 | 56 | 131 | 0.0 | 0.0 | 0.00 | 0.00 | 0.00 | 90 | 1009.8 |